Погода в Трбовле

Словения     46°09′21″N   15°03′21″E
темп.,
°C
ветер,
м/с
пор.,
м/с
влажн.,
%
обл.,
%
осадки,
мм/ч
давл.,
гПа
погр.,
м
10 апреля, сб
сб1023:00+4зюз4108291 0.0 1023531
02:00+1зюз359711 0.0 1023101
05:00+1зюз349621 0.0 102277
08:00+4зюз2583100 0.0 1021166
11:00+9зюз51060100 0.0 10201193
14:00+12зюз6104769 0.0 10191603
17:00+12юз695241 0.0 10181359
20:00+6зюз5117512 0.0 1020714
11 апреля, вс
вс1123:00+5зюз41086100 0.0 1021584
02:00+6юз41085100 0.0 1019909
05:00+6зюз41184100 0.0 1018945
08:00+6юз31085100 0.0 1019936
11:00+6юз3990100 0.1 1020921
14:00+6ююз3794100 0.5 1020507
17:00+7юз31095100 0.3 10191088
20:00+6юз3798100 1.0 1019328
12 апреля, пн
пн1223:00+7юз2898100 0.8 1018511
02:00+8юз3997100 1.1 1018601
05:00+7ююз3898100 0.1 1017522
08:00+7ююз2498100 0.3 1017176
11:00+8юз2497100 0.8 1017232
14:00+8юз1396100 1.8 1017208
17:00+8юз1298100 3.5 101590
20:00+8ю1199100 4.3 101623
13 апреля, вт
вт1323:00+7з0099100 0.5 101519
02:00+7ссв2398100 4.1 1015103
05:00+1с2499100 7.9 1018195
08:00+1ссв24100100 18.2 1019195
11:00+1ссв2498100 4.6 1020336
14:00+2ссв2493100 6.4 1021514
17:00+3ссв2492100 0.6 1020708
20:00+1св1399100 1.3 1023216
14 апреля, ср
ср1423:00+1з0199100 0.3 102457
02:000сз1198100 0.3 102464
05:00−2зсз1197100 0.0 102426
08:000зсз1288100 0.0 1024118
11:00+5ссз266699 0.1 10231505
14:00+6с2468100 0.3 10221234
17:00+5ссз1373100 0.7 1022728
20:000сз1196100 0.9 102410